Wind_Speed
24 22 21 22 23 24 23 22 20 19 17 16 16 17 17 18 18 17 16 15 14 13 11 10 9 9 9 11 12 14 14 14 15 15 15 14 14 16 12 10 13 14 12
32 25 22 22 25 25 23 22 20 18 16 16 15 16 16 15 15 14 13 12 11 10 10 8 8 8 9 9 11 12 13 14 14 15 15 13 12 12 12 12 12 12 12
33 28 24 23 25 25 24 22 21 19 17 15 15 15 14 13 12 12 11 10 9 9 8 7 7 8 8 8 9 10 10 10 10 9 7 8 12 11 12 12 11 10 10
34 29 26 24 26 26 24 22 20 19 16 15 14 14 12 11 11 11 10 9 9 8 8 7 6 6 6 6 6 7 7 7 6 8 6 5 8 8 9 9 10 10 10
31 29 26 25 27 26 24 22 22 19 16 15 14 13 11 11 10 10 9 8 8 7 6 5 6 6 6 5 5 5 5 4 3 4 6 2 3 6 6 6 6 5 5
27 26 26 26 26 25 24 23 21 19 17 15 14 12 11 10 9 9 8 7 7 6 5 4 4 3 3 2 2 2 2 3 3 4 1 6 2 2 5 4 4 4 4
24 23 25 24 24 24 24 23 21 19 17 16 14 12 11 10 9 9 8 7 5 4 5 4 3 2 2 1 1 1 3 3 4 3 2 7 3 0 2 3 4 4 4
27 26 26 24 24 24 23 22 20 19 17 16 15 13 12 10 10 9 7 6 5 4 4 3 2 0 1 2 3 3 4 5 6 5 7 10 7 5 1 3 2 3 4
28 27 28 26 24 23 22 21 19 18 17 16 15 13 12 11 10 9 7 6 5 4 3 2 1 1 2 4 5 5 6 6 7 5 2 10 8 5 1 2 3 4 3
26 25 30 27 25 23 22 20 19 18 17 16 15 14 12 12 11 10 9 8 5 3 3 2 1 2 2 4 5 6 7 7 8 7 5 10 10 6 2 2 3 5 4
25 24 30 29 27 25 23 22 20 19 18 16 15 14 13 13 12 11 9 7 3 4 4 4 4 3 3 3 3 3 4 7 5 5 10 8 13 9 6 5 5 6 5
27 25 28 28 27 25 24 24 23 21 20 19 18 17 15 14 11 11 9 6 6 6 7 6 3 1 2 2 1 4 5 6 4 6 10 11 10 9 10 8 8 8 8
29 25 25 26 26 25 24 25 24 23 22 20 19 18 17 16 14 13 13 9 10 9 7 6 4 3 2 3 5 3 5 6 5 10 10 9 11 11 12 10 9 10 11
33 30 26 29 27 27 25 24 24 25 24 24 23 20 19 19 17 18 17 13 11 8 7 9 2 4 4 5 5 7 9 8 6 9 13 11 11 11 11 14 13 12 11
33 35 33 35 32 31 30 27 27 27 27 26 24 24 21 22 21 22 19 18 15 12 10 8 10 6 8 7 7 10 11 10 10 11 12 11 14 15 14 13 12 12 12
36 37 37 37 36 31 31 29 30 28 26 25 26 27 25 24 24 22 23 20 20 15 13 11 10 9 7 7 9 9 12 11 10 12 13 11 13 15 15 15 15 15 15
38 40 41 40 37 35 34 31 29 28 27 28 29 27 28 27 23 24 22 18 17 17 14 13 13 11 10 11 12 12 10 11 15 16 18 15 12 16 20 19 18 19 19
38 42 44 41 37 33 35 31 28 28 31 31 30 29 28 30 26 23 24 23 20 17 15 14 13 11 9 10 11 12 16 16 16 15 17 20 22 24 25 23 22 21 22
45 44 45 42 39 35 36 35 33 30 27 28 30 29 28 28 28 24 24 21 19 17 17 14 14 14 14 10 10 14 15 17 17 20 25 21 22 19 20 24 24 22 23
45 48 47 44 40 38 35 33 29 30 33 25 29 29 29 29 29 30 24 20 19 20 19 18 18 15 10 8 10 13 17 18 18 20 20 21 21 20 18 19 24 25 25
42 42 44 43 41 40 36 34 29 32 34 32 31 29 27 30 30 29 26 23 23 24 22 19 18 14 10 9 9 9 15 17 15 16 18 19 20 19 23 22 22 23 26
41 43 39 44 44 43 41 39 31 28 28 32 33 32 33 30 28 29 30 27 26 24 22 19 16 12 10 7 6 5 3 4 9 11 15 18 18 18 20 20 20 21 21
32 36 40 40 47 44 38 33 26 25 23 29 33 34 35 34 31 33 32 30 28 31 27 20 16 13 11 10 10 4 2 3 4 12 7 13 17 19 21 24 24 25 27
20 25 27 31 37 38 37 36 34 33 28 31 31 32 31 33 35 34 33 29 27 29 23 17 15 14 12 12 9 11 14 13 3 4 5 7 15 19 21 21 22 22 24
14 18 22 29 32 35 38 37 38 33 30 27 29 29 33 33 37 37 33 31 27 24 19 18 19 16 15 13 13 12 14 15 16 8 8 5 11 14 17 20 22 25 25
10 11 13 16 27 36 37 37 34 28 25 27 29 32 34 36 37 36 32 27 24 22 23 21 18 16 15 15 15 17 19 9 9 10 5 8 11 17 18 17 18 26 24
Wind_Direction
159 163 160 159 155 152 149 142 138 132 128 119 115 115 112 110 108 107 108 108 107 108 105 100 95 87 85 85 87 86 82 81 79 78 83 83 86 82 92 66 70 66 64
168 164 161 162 159 156 151 145 141 138 133 125 122 120 118 116 114 112 112 114 112 107 106 102 94 92 91 91 92 89 83 87 84 78 68 65 76 78 76 70 74 71 60
169 161 162 164 159 157 153 148 146 144 140 133 129 126 123 120 118 117 115 115 112 111 109 108 104 107 109 106 99 97 91 93 91 93 57 60 55 66 68 64 64 69 73
162 159 160 161 159 157 155 151 149 149 144 138 135 131 127 127 125 121 120 118 114 112 113 114 114 114 111 106 110 110 108 103 93 74 98 116 54 62 65 66 66 55 53
157 158 156 158 158 157 156 155 157 153 148 144 141 138 137 134 130 128 124 119 118 118 118 122 129 135 139 143 132 120 113 123 99 84 105 180 66 67 60 64 68 80 24
155 157 154 159 159 158 159 160 159 155 154 151 149 147 145 142 139 134 133 133 135 136 141 136 127 125 140 150 139 133 144 176 159 54 168 197 248 79 37 37 34 34 40
158 162 157 161 162 163 164 164 162 160 158 156 154 153 152 150 145 143 146 144 140 136 132 142 150 152 181 209 227 254 250 254 265 317 75 224 246 28 49 27 30 10 5
160 165 163 165 166 167 168 166 165 163 164 162 162 161 159 157 154 153 156 150 144 150 154 158 150 190 282 288 283 269 256 275 291 338 330 223 239 204 110 6 2 353 341
164 164 169 167 168 169 168 168 170 169 168 167 168 166 164 163 165 167 168 174 166 169 170 159 154 240 292 298 292 285 278 268 264 249 318 256 248 230 258 342 314 329 319
165 169 172 172 172 171 171 173 175 175 174 173 173 174 170 174 179 182 186 192 189 203 190 185 200 283 298 298 306 307 305 289 271 271 241 250 240 219 260 286 284 311 313
167 171 176 175 177 177 176 177 180 181 181 180 182 182 182 187 191 195 197 197 213 228 208 200 210 227 258 275 282 309 318 307 285 301 300 267 230 241 266 275 285 294 292
166 173 181 180 179 179 182 182 184 186 187 189 191 191 192 196 199 205 202 208 228 233 222 213 215 250 301 285 308 294 322 340 246 309 281 262 242 257 261 282 283 285 291
170 169 177 183 183 182 187 189 189 191 192 194 199 201 199 197 204 213 218 221 244 235 231 209 190 165 83 308 322 269 297 289 265 275 283 260 243 238 259 270 274 275 282
179 182 184 185 188 187 191 192 200 198 198 200 203 207 204 196 207 217 222 226 232 215 213 208 225 261 233 214 255 304 294 290 298 284 289 281 263 249 256 273 278 263 260
179 182 186 184 191 191 195 199 202 205 205 207 206 209 206 205 211 214 218 224 224 222 214 228 234 239 234 252 278 269 272 273 265 274 273 276 271 265 266 261 255 252 257
181 179 187 185 189 191 201 203 200 204 206 209 209 210 211 209 215 218 225 230 233 224 220 228 222 239 247 255 261 266 254 262 258 257 273 274 264 267 269 264 252 236 236
179 177 183 185 186 196 201 205 210 205 206 207 208 213 212 213 218 216 223 217 200 206 197 203 230 245 264 272 284 292 286 274 268 266 270 273 271 271 272 265 260 250 238
173 177 186 189 193 198 199 201 205 209 211 214 216 216 217 217 216 214 220 211 210 206 213 225 238 248 244 265 278 287 287 281 274 265 274 275 281 280 279 276 268 259 248
175 175 186 192 193 195 200 202 207 209 213 219 220 219 216 216 212 211 215 218 216 208 209 219 235 231 240 250 268 279 279 281 283 280 295 284 283 281 278 279 279 269 253
175 179 184 191 193 193 193 199 207 214 216 220 215 214 214 214 212 215 218 217 207 205 205 219 219 218 233 246 267 273 274 280 282 285 284 287 283 284 281 275 278 275 262
175 173 176 182 190 187 182 187 200 210 219 222 219 219 211 207 213 215 215 214 210 209 209 214 197 196 216 253 279 280 275 283 279 279 279 281 286 287 277 277 277 278 270
174 178 174 183 185 189 185 191 193 203 214 220 222 221 221 214 216 214 216 215 211 206 197 193 194 207 238 255 226 249 312 316 272 287 280 269 265 272 274 273 271 274 272
171 175 179 180 189 190 191 185 189 199 212 222 225 225 226 229 224 216 216 216 217 211 206 209 217 215 213 217 234 217 337 253 298 284 271 279 275 260 268 275 275 275 278
134 170 177 182 187 195 198 186 185 191 201 212 215 222 226 225 219 217 218 214 194 202 207 208 209 215 211 218 225 241 247 261 270 312 250 292 279 259 271 277 280 286 290
152 159 165 198 206 205 201 196 194 198 205 203 205 215 224 224 221 220 217 210 207 206 208 202 205 213 212 220 225 236 259 264 262 240 288 264 263 271 265 269 280 285 284
158 178 177 155 199 210 207 204 201 204 201 198 202 207 220 221 223 224 222 208 204 201 204 208 216 223 229 238 239 248 244 224 244 245 261 273 270 288 283 263 265 280 281
Height
804 805 805 807 806 808 810 811 814 816 820 821 822 824 826 827 829 830 832 833 834 836 837 838 839 840 841 840 841 841 842 842 843 843 842 842 842 842 841 840 840 840 840
800 803 804 807 806 808 810 812 815 818 821 822 823 825 827 829 830 832 833 835 836 838 839 841 841 842 842 843 843 844 844 845 845 845 845 844 843 842 842 842 842 843 843
798 800 803 806 806 808 811 812 815 818 821 822 824 826 828 830 832 833 835 837 839 840 841 842 842 843 843 844 844 845 846 846 846 846 846 846 845 844 843 844 844 843 842
796 799 802 805 806 808 811 814 817 819 822 823 826 827 830 832 834 835 837 839 840 841 842 843 843 844 845 845 845 846 847 847 847 847 846 846 845 846 845 845 846 846 845
797 799 800 804 807 808 811 814 817 819 822 824 827 828 831 833 835 837 838 840 841 842 843 843 843 843 843 844 845 846 846 847 848 848 849 847 847 846 847 846 847 846 847
797 799 801 806 808 810 812 815 817 819 822 825 827 829 832 834 836 837 839 840 840 841 842 843 845 845 846 846 846 846 847 847 847 848 849 848 848 846 847 847 847 847 847
796 800 802 806 809 811 813 815 817 820 823 825 828 830 833 834 836 837 839 840 841 842 843 844 844 845 845 845 846 847 847 847 847 848 850 849 849 849 847 846 847 848 849
795 799 802 806 808 810 813 815 818 821 823 826 827 830 832 834 836 838 840 841 841 842 842 844 844 845 845 845 845 845 846 847 848 848 847 847 846 845 845 847 846 847 847
794 796 801 804 807 810 812 816 819 821 824 825 828 830 832 834 836 838 839 841 841 842 842 843 844 844 844 845 845 845 846 846 846 847 847 847 847 848 846 844 847 846 845
794 796 799 804 807 810 813 816 819 821 823 826 827 830 832 833 835 837 838 839 840 842 843 843 844 844 844 844 845 845 844 845 845 846 848 848 847 847 846 845 844 846 845
794 796 798 800 803 807 811 815 818 820 822 825 827 829 831 833 834 835 837 839 840 841 842 841 841 841 841 841 842 843 843 843 845 845 845 845 846 846 845 846 843 842 843
792 793 796 799 802 806 809 812 815 818 820 822 824 827 829 831 833 835 836 836 837 837 836 837 839 840 840 840 841 841 842 843 843 843 842 842 844 845 844 844 844 843 842
788 792 795 798 801 804 807 810 813 815 817 820 823 825 827 829 831 834 834 835 835 836 837 838 838 839 840 841 841 841 841 841 840 841 841 841 841 840 840 838 839 841 842
780 783 789 796 799 802 804 808 810 812 814 816 818 822 825 827 829 830 832 833 835 836 836 838 839 839 839 839 839 840 840 840 841 841 841 841 840 838 838 837 837 836 837
773 777 781 786 794 799 801 803 806 808 810 813 816 818 822 824 825 827 830 830 833 833 834 836 838 838 839 840 839 839 839 838 838 838 837 836 837 838 839 840 838 837 835
767 772 776 781 786 793 796 799 801 804 807 810 812 815 818 820 822 825 827 829 830 833 835 836 836 838 838 836 836 836 836 837 837 836 835 835 835 834 834 834 837 837 836
760 766 770 776 780 785 790 796 800 802 805 807 809 811 814 817 819 821 823 825 827 829 832 833 833 835 835 835 836 837 837 836 835 834 833 832 832 832 831 831 830 833 835
753 760 765 770 774 779 786 792 796 799 801 803 805 808 810 812 815 817 819 822 824 826 828 830 830 831 833 832 832 833 831 830 830 830 829 829 828 829 830 828 826 826 827
744 752 758 763 767 773 780 787 792 795 797 799 802 805 807 809 811 814 815 818 820 822 824 825 826 827 828 829 829 828 828 827 826 825 825 825 824 822 822 823 827 825 824
737 743 749 754 759 766 774 783 789 793 794 795 796 798 801 804 807 809 811 814 817 819 820 821 822 823 825 826 825 826 826 825 824 823 822 822 821 820 819 819 820 821 821
733 739 743 748 754 762 769 775 782 784 787 790 793 795 797 799 802 803 806 809 812 813 815 816 818 820 821 820 822 823 821 819 818 816 817 818 819 816 816 815 815 817 816
725 731 737 741 747 753 758 763 770 778 783 786 789 791 792 794 798 801 802 805 808 810 811 812 813 814 815 818 819 819 818 816 815 815 813 813 811 812 813 812 812 813 813
722 727 731 736 740 746 753 761 768 774 779 782 783 785 787 790 792 795 797 800 802 803 805 805 808 812 813 815 816 818 820 820 812 809 810 810 811 810 811 811 809 809 810
723 728 734 737 740 746 750 754 757 759 764 766 772 777 782 785 787 789 791 793 795 798 799 802 805 808 809 811 813 813 813 812 813 810 805 805 808 809 808 808 807 805 804
724 729 733 737 741 744 746 749 750 752 756 762 767 771 776 778 780 783 784 786 790 792 795 798 802 804 805 806 807 808 810 810 809 809 801 799 802 802 802 801 801 801 799
722 725 729 734 737 740 743 746 750 752 755 758 761 762 767 771 774 777 780 782 786 789 793 796 799 800 801 802 803 804 803 804 805 806 803 799 797 796 797 796 796 795 794